This is the latest recevied weather packets stored in our database for station/object KC4JIR. If no packets are shown the sender has not sent any weather packets the latest 10 day(s).
| Time | Temp. | Humidity | Pressure | Rain* | Wind** | Luminosity | Snow |
|---|---|---|---|---|---|---|---|
| 1777844639 | 23.89° C | 33% | 1014.7 hPa | 0 mm | - | 323 W/m² | - |
| 1777844336 | 24.44° C | 29% | 1014.5 hPa | 0 mm | - | 347 W/m² | - |
| 1777844034 | 24.44° C | 31% | 1014.7 hPa | 0 mm | - | 358 W/m² | - |
| 1777843730 | 25° C | 30% | 1014.8 hPa | 0 mm | - | 379 W/m² | - |
| 1777843429 | 24.44° C | 28% | 1015 hPa | 0 mm | - | 416 W/m² | - |
| 1777843125 | 24.44° C | 30% | 1014.9 hPa | 0 mm | - | 430 W/m² | - |
| 1777842822 | 24.44° C | 31% | 1015 hPa | 0 mm | - | 455 W/m² | - |
| 1777842517 | 25° C | 31% | 1015 hPa | 0 mm | - | 455 W/m² | - |
| 1777842215 | 24.44° C | 32% | 1015 hPa | 0 mm | - | 442 W/m² | - |
| 1777841910 | 24.44° C | 33% | 1015 hPa | 0 mm | - | 486 W/m² | - |
| 1777841607 | 24.44° C | 31% | 1015 hPa | 0 mm | - | 451 W/m² | - |
| 1777841303 | 24.44° C | 31% | 1014.9 hPa | 0 mm | - | 500 W/m² | - |
| 1777841001 | 24.44° C | 34% | 1015 hPa | 0 mm | - | 524 W/m² | - |
| 1777840698 | 24.44° C | 34% | 1015 hPa | 0 mm | - | 514 W/m² | - |
| 1777840395 | 23.33° C | 33% | 1015.2 hPa | 0 mm | - | 495 W/m² | - |
| 1777840092 | 23.89° C | 32% | 1014.8 hPa | 0 mm | - | 555 W/m² | - |
| 1777839790 | 23.89° C | 34% | 1015.2 hPa | 0 mm | - | 576 W/m² | - |
| 1777839488 | 23.89° C | 35% | 1015 hPa | 0 mm | - | 591 W/m² | - |
| 1777839185 | 23.33° C | 33% | 1015.2 hPa | 0 mm | - | 553 W/m² | - |
| 1777838882 | 23.89° C | 31% | 1015.3 hPa | 0 mm | - | 547 W/m² | - |
| 1777838577 | 24.44° C | 32% | 1015.2 hPa | 0 mm | - | 584 W/m² | - |
| 1777838275 | 24.44° C | 32% | 1015.4 hPa | 0 mm | - | 605 W/m² | - |
| 1777837972 | 23.89° C | 34% | 1015.4 hPa | 0 mm | - | 639 W/m² | - |
| 1777837669 | 23.89° C | 34% | 1015.4 hPa | 0 mm | - | 658 W/m² | - |
| 1777837365 | 23.33° C | 34% | 1015.6 hPa | 0 mm | - | 669 W/m² | - |
* Rain latest hour (hover to see other rain measurements)
** Current wind speed in m/s (hover to see current wind gust speed)